If you wish to contribute or participate in the discussions about articles you are invited to join SKYbrary as a registered user

 Actions

Angoulême-Brie-Champniers Airport

From SKYbrary Wiki

LFBU
Airport
ICAO: LFBU – IATA: ANG
Summary
Name Angoulême-Brie-Champniers Airport
Region Europe
Territory France FR.gif
Location , Poitou-Charentes
Serving Angouleme
Elevation 132.893 m
436 ft
436 ft132.893 m
Type medium airport
Coordinates 45° 43' 45.2892", 0° 13' 17.2416"
Runways
Designator Length Width Surface ROPS
10/28 1810 m5,938.32 ft 45 m147.638 ft ASP /


METAR
Observation LFBU 222300Z AUTO 23005KT 9999 BKN010 18/15 Q1023
Station BRIE CHAMPNIERS
Date/Time 22 September 2018 23:00:00
Wind direction 230°
Wind speed 05 kts
Lowest cloud amount broken clouds
Temperature 18°C
Dew point 15°C
Humidity 82%
QNH 1023 hPa
Weather condition n/a